Miscellaneous Local Product
Issued by NWS Hastings, NE

Home | Current Version | Previous Version | Text Only | Print | Product List | Glossary Off
Versions: 1 2 3 4 5 6 7 8 9 10 11 12 13 14 15 16 17 18 19 20 21 22 23 24 25 26 27 28 29 30 31 32 33 34 35 36 37 38 39 40 41 42 43 44 45 46 47 48 49 50

000
AXUS43 KGID 220302
MISGRI

GID CWA HOURLY WEATHER ROUNDUP
NATIONAL WEATHER SERVICE HASTINGS NE
1000 PM CDT SUN MAY 21 2017

NOTE: "FAIR" INDICATES FEW OR NO CLOUDS BELOW 12,000 FEET WITH NO
SIGNIFICANT WEATHER AND/OR OBSTRUCTIONS TO VISIBILITY.

...SOUTH CENTRAL NEBRASKA...

CITY           SKY/WX    TMP DP  RH WIND       PRES   REMARKS
GRAND ISLAND   CLEAR     56  45  66 S5        30.08R
HASTINGS       CLEAR     59  43  55 SE5       30.09R
KEARNEY        CLEAR     57  43  58 CALM      30.09R
ORD            NOT AVBL
YORK           CLEAR     57  46  67 S7        30.08R
AURORA         CLEAR     60  40  48 S5        30.08R
LEXINGTON      CLEAR     55  47  73 CALM      30.09R
HOLDREGE       CLEAR     58  44  59 S3        30.09R
HEBRON         CLEAR     59  46  62 S5        30.09R

...NEBRASKA PANHANDLE...

CITY           SKY/WX    TMP DP  RH WIND       PRES   REMARKS
CHADRON        CLEAR     46  42  86 W6        30.15R
ALLIANCE       CLEAR     45  42  89 W8        30.15R
SCOTTSBLUFF    MOCLDY    50 N/A N/A CALM      30.18R
SIDNEY         CLOUDY    46  42  86 NW9       30.20R

...WESTERN AND NORTH CENTRAL NEBRASKA...

CITY           SKY/WX    TMP DP  RH WIND       PRES   REMARKS
VALENTINE      MOCLDY    57  42  57 W9        30.06R
AINSWORTH      CLOUDY    55  47  72 SW14      30.07R
ONEILL         PTCLDY    56  40  55 S6        30.03R
BROKEN BOW     PTCLDY    57  46  66 W5        30.07R
IMPERIAL       CLOUDY    56  45  66 NW9       30.14R
NORTH PLATTE   PTCLDY    50  46  86 CALM      30.10R
MCCOOK         CLEAR     61  42  49 CALM      30.10R

...EASTERN NEBRASKA...

CITY           SKY/WX    TMP DP  RH WIND       PRES   REMARKS
NORFOLK        CLEAR     50  41  71 SE8       30.04R
SO SIOUX CITY  CLEAR     51  47  86 S6        30.03S
TEKAMAH        CLEAR     53  49  86 S8        30.06R
COLUMBUS       CLEAR     54  43  66 CALM      30.08R
ALBION         CLEAR     51  42  71 CALM      30.05S
OMAHA EPPLEY   CLEAR     55  45  68 SE3       30.08S
MILLARD        CLEAR     55  48  76 CALM      30.09R
LINCOLN        CLEAR     57  43  59 SE3       30.10R
NEBRASKA CITY  CLEAR     60  35  39 SE5       30.10S
BEATRICE       CLEAR     60  47  61 SE3       30.10R
FALLS CITY     CLEAR     59  43  55 S6        30.10R

...NORTHERN KANSAS...

CITY           SKY/WX    TMP DP  RH WIND       PRES   REMARKS
GOODLAND       CLOUDY    53  48  83 S9        30.12S
HILL CITY      PTCLDY    59  53  80 SE5       30.10S
NORTON         PTCLDY    55  45  67 S6        30.10R
PHILLIPSBURG   CLEAR     59  48  67 CALM      30.11R
SMITH CENTER   CLOUDY    57  46  67 E5        30.10R
HAYS           CLOUDY    59  51  75 S10       30.11R
RUSSELL        CLOUDY    60  52  74 S10       30.09R
CONCORDIA      CLEAR     59  49  69 S10       30.10R
SALINA         LGT RAIN  66  54  65 N6        30.12R
TOPEKA         CLEAR     59  56  89 CALM      30.11S



USA.gov is the U.S. government's official web portal to all federal, state and local government web resources and services.